Flag for Germany Weather past 2 weeks in Germering, Bavaria, Germany

Now
84 °F

Sunny.


Feels Like: 83 °F
Forecast: 61 / 85 °F
Wind: 16 mph from Northwest

Location: Oberpfaffenhofen

Current Time: Aug 4, 2015 at 2:19:55 PM

Latest Report: Aug 4, 2015 at 1:50 PM


Visibility: 10 mi

Pressure: 30.01 "Hg (28.24 "Hg at 538m altitude)

Humidity: 37%

Dew point: 55 °F

Location of GermeringLocation

Historic Weather in Germering — Graph

°F

Germering temperature yesterday

Maximum temperature yesterday: 82 °F (at 2:50 PM)
Minimum temperature yesterday: 54 °F (at 6:50 AM)
Average temperature yesterday: 75 °F

Past Weeks' High & Low Weather Summary

 TemperatureHumidityPressure
High93 °F (Jul 22, 1:50 PM)100% (Jul 22, 6:50 AM)30.12 "Hg (Jul 22, 6:50 AM)
Low46 °F (Jul 31, 6:50 AM)28% (Jul 22, 1:50 PM)29.77 "Hg (Jul 24, 6:50 PM)
Average71 °F57%29.97 "Hg
* Reported Jul 20 1:20 PM — Aug 4 1:20 PM, Germering, Weather by CustomWeather, © 2015

Note: Actual official high and low records may vary slightly from our data, if they occured in-between our weather recording intervals... More about our weather records

Advertising

Germering weather history for previous 24 hours

 ConditionsComfort  
Time TempWeatherWind HumidityBarometerVisibility
1:20 PM
Tue, Aug 4
84 °FPassing clouds.13 mph37%30.01 "HgN/A
12:50 PM84 °FSunny.10 mph37%30.01 "Hg10 mi
12:20 PM84 °FPassing clouds.7 mph35%30.01 "HgN/A
11:50 AM84 °FSunny.3 mph33%30.01 "Hg10 mi
11:20 AM82 °FSunny.3 mph40%30.01 "Hg10 mi
10:50 AM81 °FSunny.3 mph48%30.01 "Hg10 mi
10:20 AM79 °FSunny.3 mph51%30.01 "Hg10 mi
9:50 AM75 °FPassing clouds.5 mph54%30.01 "HgN/A
9:20 AM73 °FSunny.1 mph61%30.01 "Hg10 mi
8:50 AM72 °FSunny.2 mph65%30.01 "Hg10 mi
8:20 AM70 °FSunny.No wind73%30.01 "Hg10 mi
7:50 AM64 °FSunny.2 mph83%30.01 "Hg10 mi
7:20 AM59 °FSunny.1 mph94%30.01 "Hg10 mi
6:50 AM55 °FClear.2 mph100%30.01 "Hg10 mi
6:50 PM
Mon, Aug 3
82 °FSunny.10 mph32%30.07 "Hg10 mi
6:20 PM82 °FSunny.13 mph32%30.07 "Hg10 mi
5:50 PM82 °FSunny.12 mph32%30.07 "Hg10 mi
5:20 PM82 °FSunny.9 mph32%30.07 "Hg10 mi
4:50 PM82 °FSunny.5 mph32%30.07 "Hg10 mi
4:20 PM82 °FPassing clouds.7 mph32%30.09 "HgN/A
3:50 PM82 °FPassing clouds.6 mph32%30.09 "HgN/A
3:20 PM82 °FPassing clouds.8 mph32%30.09 "HgN/A
2:50 PM82 °FPassing clouds.8 mph35%30.09 "HgN/A
2:20 PM81 °FPassing clouds.10 mph34%30.09 "HgN/A
Weather by CustomWeather, © 2015

See weather overviewHow to use our weather pages